Weather History for Amberley Military, Queensland

Change the Weather History Date:

Friday, November 15, 2013

  Actual Average Record
Temperature  
Mean Temperature 74 °F -  
Max Temperature 89 °F - - ()
Min Temperature 59 °F - - ()
Cooling Degree Days 9    
Growing Degree Days 24 (Base 50)    
Moisture  
Dew Point 63 °F    
Average Humidity 75    
Maximum Humidity 100    
Minimum Humidity 33    
Precipitation  
Precipitation 0.00 in - - ()
Sea Level Pressure  
Sea Level Pressure 29.86 in    
Wind  
Wind Speed 5 mph ()    
Max Wind Speed 17 mph    
Max Gust Speed -    
Visibility 5.4 miles    
Events      
T = Trace of Precipitation, MM = Missing Value Source: Averaged Metar Reports

Daily Weather History Graph

Daily Weather History Graph

Search for Another Location

Airport:

Trip Planner

Search our weather history database for the weather conditions in past years. The results will help you decide how hot, cold, wet, or windy it might be!

Date:

Astronomy

Nov. 15, 2013 Rise Set
Actual Time 4:49 AM EST 6:18 PM EST
Civil Twilight 4:24 AM EST 6:43 PM EST
Nautical Twilight 3:53 AM EST 7:13 PM EST
Astronomical Twilight 3:22 AM EST 7:45 PM EST
Moon 4:07 PM EST (11/15) 2:59 AM EST (11/15)
Length of Visible Light 14h 19m
Length of Day
13h 28m
Waxing Gibbous, 93% of the Moon is Illuminated
Nov 15
Waxing Gibbous
Nov 18
Full
Nov 26
Last Quarter
Dec 3
New
Dec 10
First Quarter

Hourly Weather History & Observations

Time (EST) Temp. Heat Index Dew Point Humidity Pressure Visibility Wind Dir Wind Speed Gust Speed Precip Events Conditions
12:00 AM 64.4 °F - 62.6 °F 94% 29.92 in 6.2 mi West 5.8 mph - N/A   Scattered Clouds
12:30 AM 64.4 °F - 62.6 °F 94% 29.92 in 6.2 mi WSW 4.6 mph - N/A   Unknown
1:00 AM 64.4 °F - 62.6 °F 94% 29.89 in 6.2 mi WSW 4.6 mph - N/A   Unknown
1:32 AM 62.6 °F - 60.8 °F 94% 29.89 in 3.7 mi WSW 2.3 mph - N/A   Unknown
2:00 AM 60.8 °F - 60.8 °F 100% 29.89 in 1.4 mi Calm Calm - N/A   Unknown
2:30 AM 62.6 °F - 60.8 °F 94% 29.89 in 5.0 mi Calm Calm - N/A   Unknown
2:33 AM 60.8 °F - 60.8 °F 100% 29.89 in 4.3 mi Calm Calm - N/A   Unknown
2:34 AM 62.6 °F - 60.8 °F 94% 29.89 in 3.7 mi Calm Calm - N/A   Unknown
3:00 AM 60.8 °F - 60.8 °F 100% 29.89 in 0.3 mi Calm Calm - N/A   Unknown
3:30 AM 60.8 °F - 60.8 °F 100% 29.89 in 0.2 mi NNW 1.2 mph - N/A   Scattered Clouds
4:00 AM 59.0 °F - 59.0 °F 100% 29.89 in 0.7 mi NE 3.5 mph - N/A   Unknown
4:15 AM 60.8 °F - 59.0 °F 94% 29.89 in 3.7 mi Calm Calm - N/A   Unknown
4:30 AM 60.8 °F - 59.0 °F 94% 29.89 in 5.6 mi Calm Calm - N/A   Unknown
5:00 AM 60.8 °F - 60.8 °F 100% 29.89 in 5.0 mi ENE 5.8 mph - N/A   Unknown
5:09 AM 60.8 °F - 60.8 °F 100% 29.89 in 6.2 mi ENE 5.8 mph - N/A   Unknown
5:30 AM 62.6 °F - 60.8 °F 94% 29.89 in 6.2 mi East 2.3 mph - N/A   Unknown
6:00 AM 64.4 °F - 62.6 °F 94% 29.92 in 6.2 mi Calm Calm - N/A   Scattered Clouds
6:30 AM 66.2 °F - 62.6 °F 88% 29.92 in 6.2 mi North 1.2 mph - N/A   Scattered Clouds
7:00 AM 68.0 °F - 62.6 °F 83% 29.92 in - WNW 4.6 mph - N/A   Clear
7:30 AM 69.8 °F - 62.6 °F 78% 29.95 in 6.2 mi WNW 5.8 mph - N/A   Partly Cloudy
8:00 AM 69.8 °F - 62.6 °F 78% 29.95 in - WSW 8.1 mph - N/A   Clear
8:30 AM 71.6 °F - 62.6 °F 73% 29.92 in - SSW 6.9 mph - N/A   Clear
9:00 AM 73.4 °F - 62.6 °F 69% 29.92 in - West 3.5 mph - N/A   Clear
9:30 AM 75.2 °F - 62.6 °F 65% 29.92 in 6.2 mi West 4.6 mph - N/A   Partly Cloudy
10:00 AM 78.8 °F - 62.6 °F 57% 29.92 in 6.2 mi WNW 5.8 mph - N/A   Partly Cloudy
10:30 AM 78.8 °F - 60.8 °F 54% 29.89 in 6.2 mi NW 4.6 mph - N/A   Partly Cloudy
11:00 AM 80.6 °F 81.5 °F 60.8 °F 51% 29.89 in 6.2 mi NW 4.6 mph - N/A   Partly Cloudy
11:30 AM 82.4 °F 82.9 °F 60.8 °F 48% 29.86 in 6.2 mi NNE 4.6 mph - N/A   Scattered Clouds
12:00 PM 84.2 °F 84.4 °F 60.8 °F 45% 29.86 in 6.2 mi North 8.1 mph - N/A   Scattered Clouds
12:30 PM 87.8 °F 87.1 °F 59.0 °F 38% 29.83 in 6.2 mi WNW 5.8 mph - N/A   Unknown
1:00 PM 87.8 °F 87.1 °F 59.0 °F 38% 29.83 in - SSW 4.6 mph - N/A   Clear
1:30 PM 87.8 °F 86.1 °F 55.4 °F 33% 29.80 in - NE 5.8 mph - N/A   Clear
2:00 PM 89.6 °F 88.9 °F 59.0 °F 36% 29.77 in 6.2 mi NNE 5.8 mph - N/A   Unknown
2:30 PM 87.8 °F 86.1 °F 55.4 °F 33% 29.77 in 6.2 mi NNE 8.1 mph - N/A   Unknown
3:00 PM 86.0 °F 86.6 °F 62.6 °F 45% 29.77 in 6.2 mi NE 10.4 mph - N/A   Unknown
3:30 PM 84.2 °F 86.6 °F 66.2 °F 55% 29.77 in 6.2 mi NE 15.0 mph - N/A   Scattered Clouds
4:00 PM 84.2 °F 87.3 °F 68.0 °F 58% 29.77 in 6.2 mi NE 16.1 mph - N/A   Unknown
4:30 PM 82.4 °F 84.6 °F 66.2 °F 58% 29.77 in 6.2 mi NE 13.8 mph - N/A   Scattered Clouds
5:00 PM 82.4 °F 84.6 °F 66.2 °F 58% 29.77 in 6.2 mi North 12.7 mph - N/A   Scattered Clouds
5:30 PM 80.6 °F 82.7 °F 66.2 °F 61% 29.77 in 6.2 mi NE 10.4 mph - N/A   Unknown
6:00 PM 78.8 °F - 66.2 °F 65% 29.77 in 6.2 mi ENE 11.5 mph - N/A   Unknown
6:30 PM 77.0 °F - 64.4 °F 65% 29.80 in 6.2 mi ENE 13.8 mph - N/A   Unknown
7:00 PM 75.2 °F - 66.2 °F 73% 29.80 in 6.2 mi ENE 17.3 mph - N/A   Unknown
7:30 PM 75.2 °F - 66.2 °F 73% 29.83 in 6.2 mi ENE 17.3 mph - N/A   Unknown
8:00 PM 73.4 °F - 66.2 °F 78% 29.83 in 6.2 mi NE 13.8 mph - N/A   Unknown
8:30 PM 73.4 °F - 66.2 °F 78% 29.86 in 6.2 mi East 10.4 mph - N/A   Unknown
9:00 PM 71.6 °F - 66.2 °F 83% 29.86 in 6.2 mi East 9.2 mph - N/A   Unknown
9:30 PM 71.6 °F - 66.2 °F 83% 29.86 in 6.2 mi East 9.2 mph - N/A   Unknown
10:00 PM 71.6 °F - 66.2 °F 83% 29.86 in 6.2 mi East 12.7 mph - N/A   Unknown
10:30 PM 71.6 °F - 66.2 °F 83% 29.86 in 6.2 mi East 10.4 mph - N/A   Unknown
11:00 PM 71.6 °F - 66.2 °F 83% 29.86 in 6.2 mi East 8.1 mph - N/A   Unknown
11:30 PM 71.6 °F - 68.0 °F 88% 29.86 in 6.2 mi East 9.2 mph - N/A   Unknown